Lapse_Rate
4.0 4.0 3.9 4.0 4.2 4.2 4.4 4.5 4.5 4.5 4.5 4.0 3.7 3.7 3.9 4.1 4.3 4.5 4.4 4.6 5.0 5.1 5.2 5.3 5.3 5.3 5.5 5.7 5.9 6.1 6.3 6.3 6.2 6.3 6.3 6.3 6.5 6.3
3.8 3.8 4.0 4.1 4.2 4.2 4.2 4.1 4.2 4.2 4.3 4.2 3.9 3.5 3.4 3.6 3.8 3.9 4.0 4.1 4.2 4.3 4.4 4.6 4.8 5.0 5.1 5.2 5.3 5.6 5.8 6.0 6.2 6.3 6.3 6.4 6.4 6.4
3.9 3.9 3.8 3.8 3.8 3.8 3.9 3.9 4.0 4.0 4.0 3.8 3.9 3.8 3.5 3.4 3.5 3.6 3.7 3.8 3.8 3.8 4.0 4.0 4.1 4.1 4.4 4.7 5.0 5.3 5.5 5.6 5.7 5.8 6.1 6.4 6.6 6.5
3.5 3.5 3.5 3.5 3.4 3.6 3.6 3.6 3.6 3.5 3.5 3.6 3.5 3.6 3.5 3.1 2.8 2.9 3.2 3.4 3.5 3.5 3.6 3.7 3.6 3.6 3.6 3.8 3.9 4.0 4.3 4.7 5.1 5.5 5.7 5.7 5.9 6.4
3.4 3.4 3.2 3.1 3.0 3.0 2.9 2.8 2.8 2.9 2.9 3.0 3.2 3.0 3.1 3.0 3.0 2.9 2.7 2.7 2.9 3.0 3.1 3.2 3.4 3.6 3.7 3.7 3.8 3.9 4.0 4.2 4.4 4.6 5.0 5.4 5.7 5.8
3.5 3.5 3.4 3.3 3.3 3.2 3.1 3.0 2.8 2.7 2.5 2.4 2.4 2.7 2.7 2.8 2.8 2.9 2.7 2.6 2.7 2.6 2.7 2.8 2.9 3.1 3.3 3.4 3.6 3.6 3.7 3.9 4.1 4.2 4.3 4.5 4.7 5.0
3.9 3.8 3.7 3.5 3.4 3.4 3.3 3.3 3.1 2.8 2.6 2.3 2.1 2.4 2.9 2.8 2.7 2.7 2.8 2.8 2.6 2.5 2.5 2.7 2.8 2.9 3.1 3.2 3.5 3.7 3.8 4.0 4.1 4.1 4.1 4.3 4.4 4.4
3.7 3.6 3.6 3.6 3.5 3.5 3.3 3.3 3.2 2.9 2.6 2.5 2.4 2.2 2.4 2.7 3.1 3.1 2.9 2.9 3.1 2.8 2.9 3.0 3.1 3.3 3.5 3.6 3.6 3.6 3.7 3.8 3.9 4.0 4.2 4.2 4.3 4.3
3.2 3.1 3.2 3.3 3.3 3.3 3.3 3.2 3.1 3.0 2.9 2.7 2.3 2.5 2.1 2.6 2.9 3.4 3.4 3.2 3.3 3.5 3.4 3.5 3.4 3.4 3.6 3.7 3.7 3.7 3.7 3.8 3.8 3.8 3.8 4.0 4.0 4.1
3.3 3.3 3.3 3.3 3.2 3.0 3.0 3.2 3.1 3.0 2.9 2.8 2.6 2.6 2.7 2.8 2.7 3.0 3.4 3.6 3.6 3.7 3.9 3.9 3.8 4.0 4.1 4.1 4.2 4.3 4.3 4.1 4.0 3.9 3.8 3.8 3.8 3.8
3.1 3.1 3.1 3.1 3.2 3.1 2.9 2.9 2.9 2.9 2.9 2.9 3.0 2.9 2.9 2.7 2.4 2.9 3.5 3.6 3.7 3.8 3.9 3.9 4.1 4.4 4.3 4.5 4.5 4.4 4.4 4.4 4.3 4.1 4.0 3.9 3.8 3.7
3.1 3.0 3.1 3.1 3.1 3.0 2.7 2.7 2.6 2.9 2.9 2.8 2.8 2.8 2.8 3.0 3.2 3.2 3.1 3.2 3.4 3.7 4.0 3.9 4.0 4.1 4.5 4.7 4.8 4.8 4.7 4.6 4.4 4.0 3.9 3.7 3.5 3.2
3.3 3.4 3.4 3.3 3.3 3.4 3.3 3.0 2.9 2.8 3.0 2.9 3.2 3.3 3.3 3.5 3.4 3.5 3.5 3.2 3.4 3.6 4.2 4.4 4.2 4.2 4.4 4.9 5.8 5.7 5.8 5.8 5.5 5.4 5.0 4.5 4.3 3.8
4.3 4.4 4.3 4.3 4.3 4.2 4.1 3.9 3.7 3.6 3.8 4.3 4.3 4.2 4.0 4.0 4.1 4.0 4.2 4.3 4.1 4.1 4.6 5.3 5.1 5.1 5.3 5.7 6.1 6.4 6.3 6.4 6.2 6.3 6.2 6.0 5.6 5.3
5.3 5.3 5.4 5.6 5.0 4.9 5.3 5.3 5.4 5.4 5.3 5.4 5.5 5.5 5.4 5.3 5.3 5.3 5.4 5.5 5.4 5.3 5.5 5.6 5.5 5.4 5.6 6.0 6.3 6.2 6.1 6.1 6.0 6.1 6.3 6.2 5.9 5.6
5.9 6.0 6.2 6.1 5.9 6.1 6.2 6.2 6.2 6.1 5.9 5.7 5.5 5.5 5.4 5.3 5.2 5.2 5.2 5.2 5.2 5.4 5.3 5.2 5.2 5.1 5.3 5.4 5.6 5.9 5.6 5.7 5.8 6.0 6.0 6.0 6.1 6.1
6.4 6.4 6.3 6.3 6.2 6.2 6.3 6.4 6.4 6.3 6.2 5.9 5.6 5.3 5.1 4.9 4.8 4.8 4.7 4.7 4.9 5.1 5.4 5.3 5.1 4.9 4.9 5.0 5.4 5.4 5.3 5.5 5.6 5.8 6.1 6.2 6.3 6.3
6.6 6.6 6.5 6.5 6.5 6.6 6.6 6.6 6.5 6.3 6.0 5.8 5.5 5.2 5.0 4.8 4.7 4.6 4.5 4.5 4.8 5.1 5.3 5.7 5.3 4.9 4.8 5.0 4.9 5.1 5.2 5.3 5.7 6.1 6.2 6.1 6.4 6.5
6.8 6.8 6.7 6.6 6.6 6.7 6.7 6.6 6.4 6.1 6.0 5.8 5.5 5.3 5.1 5.0 4.9 5.0 4.9 4.9 5.1 5.3 5.3 5.3 5.2 5.0 4.9 4.8 5.3 4.9 4.9 5.6 6.0 6.0 6.2 6.4 6.5 6.5
6.9 6.9 6.8 6.7 6.8 6.7 6.7 6.6 6.5 6.4 6.1 6.0 5.7 5.4 5.2 5.2 5.4 5.4 5.4 5.3 5.3 5.3 5.3 5.2 5.0 5.0 4.3 4.2 4.7 5.4 5.9 5.9 5.9 5.9 6.1 6.6 6.6 6.6
6.9 6.9 6.8 6.9 6.9 6.8 6.7 6.7 6.6 6.5 6.2 6.0 5.8 5.6 5.5 5.4 5.5 5.4 5.4 5.3 5.3 5.2 5.1 5.2 5.1 4.4 4.1 4.2 4.5 5.2 5.6 6.1 6.1 6.0 6.1 6.2 6.6 6.8
7.0 7.0 6.8 6.8 6.8 6.7 6.6 6.6 6.6 6.4 6.2 6.1 6.0 5.9 5.7 5.7 5.7 5.5 5.5 5.4 5.2 5.0 4.9 4.9 4.9 4.5 4.3 4.3 4.3 4.6 5.0 5.6 5.8 5.8 6.0 6.1 6.2 6.5
7.1 7.0 7.0 6.9 6.8 6.7 6.6 6.5 6.5 6.5 6.2 6.0 6.1 6.0 5.9 5.9 5.8 5.7 5.6 5.5 5.4 5.1 4.9 4.6 4.5 4.5 4.5 4.5 4.6 4.5 4.8 5.3 5.6 5.7 6.2 6.3 6.1 5.9
Wind_Speed
4 5 5 4 4 5 5 5 5 4 4 2 2 2 5 8 11 13 13 12 14 15 15 14 14 14 14 14 15 17 17 17 17 17 17 17 18 20
4 5 5 5 5 5 5 6 6 7 6 4 4 6 10 13 12 13 13 15 16 15 15 15 15 16 16 16 16 16 17 18 19 19 19 19 19 20
5 6 6 6 5 5 5 6 7 7 8 9 8 10 12 11 13 12 13 14 14 15 15 17 17 18 18 19 18 19 18 18 19 19 20 20 20 21
6 7 7 5 8 7 6 8 8 8 8 12 10 9 11 12 14 13 13 13 14 15 16 18 19 20 20 21 21 21 20 20 21 21 21 22 22 23
7 7 7 8 8 7 8 7 7 7 8 8 11 9 9 8 9 11 12 13 15 16 16 18 20 20 20 21 22 22 22 22 23 23 23 22 22 22
7 8 8 8 9 9 9 9 9 9 9 9 8 11 10 10 8 9 9 8 8 14 15 17 19 21 22 23 23 24 25 24 24 23 23 24 24 25
9 9 10 13 16 15 8 10 11 10 10 9 9 9 10 10 10 8 9 10 10 11 10 12 13 14 14 16 19 22 23 24 24 24 23 24 25 26
11 11 12 15 16 20 22 24 17 12 13 11 10 11 14 11 10 9 9 10 11 15 10 9 12 9 16 18 20 22 24 24 25 26 26 26 27 28
11 11 11 10 15 13 18 20 21 23 22 12 11 10 11 11 10 12 13 12 12 10 9 11 9 12 17 20 22 24 26 27 28 28 29 29 29 29
12 12 12 13 13 13 14 14 15 15 14 11 14 13 13 15 13 12 14 14 13 10 12 12 9 12 12 18 24 27 28 29 30 30 30 30 30 30
11 13 13 13 17 19 13 13 16 15 21 25 27 29 30 28 25 10 10 11 11 10 9 10 10 12 11 12 20 26 28 29 29 28 29 30 30 30
12 13 18 16 20 20 14 13 13 14 13 15 14 19 25 23 24 16 9 10 11 13 11 11 10 10 12 10 9 15 16 17 20 25 28 30 30 22
9 9 9 16 19 20 20 12 13 14 12 8 9 7 7 9 10 15 17 11 11 12 13 11 10 9 9 12 12 11 14 16 17 20 25 29 29 27
11 10 10 17 18 21 18 15 14 14 10 10 10 11 10 10 10 12 19 19 19 15 19 18 8 9 10 12 13 9 10 12 14 11 14 24 30 31
10 13 18 20 22 13 14 15 18 10 10 9 10 10 10 10 13 10 16 18 19 20 20 22 11 11 11 12 13 11 13 11 10 11 11 11 12 11
14 12 13 15 15 11 11 10 8 8 8 9 9 9 9 9 9 9 9 8 9 9 16 20 19 13 11 12 12 11 10 12 10 11 10 11 13 18
13 9 6 5 7 7 7 8 7 7 8 8 8 9 9 9 9 8 8 8 9 9 9 8 14 17 11 14 12 11 11 11 11 12 11 12 12 13
9 3 4 6 7 7 7 7 7 9 8 8 8 8 9 9 9 8 8 9 9 9 8 9 8 8 9 12 19 12 11 11 11 11 11 12 13 12
3 5 5 6 6 7 7 8 8 8 9 8 8 9 8 8 10 9 8 9 9 9 9 9 9 8 10 11 9 20 11 10 10 10 10 10 13 14
4 5 6 6 7 7 7 8 8 8 8 8 9 9 8 8 9 9 9 10 10 10 9 9 9 10 10 12 12 10 18 11 11 12 12 11 13 26
5 6 6 7 7 7 8 8 9 8 9 8 9 8 8 9 9 9 10 16 16 10 11 11 11 21 10 10 10 11 11 23 21 14 11 12 13 13
6 7 7 7 8 8 8 8 8 9 9 8 9 8 9 9 9 10 10 10 10 10 10 10 11 10 10 11 13 16 12 11 18 26 28 24 13 16
7 7 8 8 8 8 8 8 9 9 9 9 8 9 9 9 10 10 10 10 11 10 11 11 10 10 11 12 17 13 18 17 12 12 12 25 28 29
Wind_Direction
243 242 239 238 238 240 243 247 249 276 278 262 281 204 291 305 314 313 308 307 308 304 304 304 305 303 304 307 308 309 308 306 303 302 300 300 302 302
251 246 246 241 241 240 242 238 237 251 260 269 271 285 292 296 296 295 292 299 295 296 298 298 294 292 293 294 296 299 302 303 303 302 301 299 298 298
245 253 255 254 253 250 244 244 243 244 256 271 278 283 287 287 289 286 289 287 288 288 290 292 291 288 288 290 291 294 294 294 296 299 300 301 299 296
264 260 260 256 255 251 250 250 247 248 255 267 277 281 280 285 287 287 283 280 279 280 282 283 283 282 282 283 285 287 290 292 292 292 293 295 296 296
269 268 270 266 265 263 258 256 254 254 257 262 276 283 281 277 276 278 280 279 276 275 274 274 274 276 279 279 278 279 281 285 289 291 293 292 293 294
274 269 269 264 264 265 260 258 261 262 262 258 258 274 278 281 277 276 278 271 281 284 278 271 273 274 273 271 270 270 272 275 280 284 287 288 290 291
275 273 270 268 266 262 260 257 254 252 255 254 250 256 272 277 271 278 279 283 282 283 284 276 272 275 274 273 269 268 267 267 269 273 276 279 285 289
274 276 275 271 270 268 264 253 241 238 247 251 254 249 256 269 272 275 279 284 291 288 274 272 277 277 278 274 273 271 272 272 271 269 269 271 275 281
263 267 267 264 261 263 263 266 269 270 268 268 267 260 256 248 265 277 280 278 281 283 284 279 282 278 278 273 270 268 268 271 272 269 269 270 272 273
265 266 261 265 265 265 270 271 269 267 266 263 263 261 260 263 262 269 274 278 279 280 268 271 274 277 281 279 276 273 271 271 271 270 269 270 271 271
267 264 267 266 268 268 266 262 265 267 265 264 264 267 267 262 260 260 262 271 276 274 277 287 283 281 284 279 275 274 273 273 273 271 270 268 270 271
264 262 260 260 264 264 258 262 263 267 267 272 270 258 256 261 270 266 269 271 278 280 277 276 279 284 288 270 266 271 268 267 269 272 270 269 269 272
259 263 265 266 272 272 274 269 268 276 288 287 276 276 275 259 251 255 257 261 269 272 280 279 271 270 272 285 282 278 278 276 270 269 268 269 271 267
261 268 266 269 272 272 278 292 293 293 284 280 276 274 274 273 269 270 267 263 262 269 274 272 273 271 273 278 282 282 276 276 273 267 264 268 272 269
269 270 272 270 272 282 281 287 298 288 283 278 274 273 273 276 277 274 270 268 270 267 267 265 262 260 257 265 275 278 284 280 272 268 265 265 265 266
263 268 267 273 282 284 288 285 284 282 278 275 275 278 282 280 272 267 265 266 266 264 255 253 256 259 262 262 268 275 274 271 271 265 262 261 261 261
256 255 244 239 260 269 272 272 271 268 266 269 274 274 272 273 270 268 265 266 265 271 272 262 250 249 253 260 269 270 270 271 273 271 265 266 263 263
280 217 249 265 269 274 274 273 268 267 265 265 264 266 269 272 277 276 272 265 266 270 275 273 271 269 261 253 249 263 267 268 270 273 269 265 267 261
258 273 267 267 273 274 272 269 269 267 267 264 265 266 267 268 275 274 273 272 270 270 268 271 269 267 271 271 271 261 268 272 276 273 274 271 275 276
267 270 273 275 274 274 275 272 272 271 266 264 263 261 260 262 266 267 270 272 270 271 273 269 262 259 258 267 279 279 271 272 268 271 274 271 271 275
276 272 272 273 274 275 276 274 270 269 268 265 263 260 259 260 262 265 266 270 270 270 271 271 268 272 277 281 272 269 261 251 249 259 267 271 275 279
278 277 274 271 271 271 272 269 267 264 263 261 262 263 262 261 260 261 262 266 265 266 267 270 274 271 268 265 269 272 271 267 263 261 262 263 267 271
275 276 275 275 273 272 270 267 261 259 257 257 258 258 256 259 256 258 260 261 263 265 266 269 267 266 261 264 265 269 267 270 271 272 266 264 263 265